User: anonymous   Login
Location: The Jewett Observatory
(46.7288°N, 117.1525°W)
Time: 07:12:36
(UTC-08:00)
Language:

Cosmos 1633 - Orbit

View from above orbital plane
View from above orbital plane
View from above satellite
View from above satellite

Ground track
Ground track

The orbit data is extracted from the following two-line orbital elements,

1 15592U 85020A   17347.92458030 +.00001490 +00000-0 +51364-4 0  9997
2 15592 082.5371 139.1594 0011966 260.3609 099.6279 15.29118334791478
Epoch (UTC): 13 December 2017 22:11:23
Eccentricity: 0.0011966
inclination: 82.5371°
perigee height: 470 km
apogee height: 486 km
right ascension of ascending node: 139.1594°
argument of perigee: 260.3609°
revolutions per day: 15.29118334
mean anomaly at epoch: 99.6279°
orbit number at epoch: 79147

The dashed part of the orbit path shows where the satellite is in the earth's shadow,  

DLR